RH
7 10 14 18 22 27 26 23 19 16 17 21 25 29 28 30 36 38 36 32 24 22 22 21 20 21 22 22 24 25 24 23 23 22 21 20 20 20 20 22 23 23 23 23
9 13 19 20 27 34 31 27 19 16 17 22 27 33 36 40 42 46 43 34 24 20 20 19 18 17 16 16 16 16 17 20 22 23 24 24 23 22 22 22 23 24 23 22
13 10 14 26 33 34 36 33 28 22 19 28 28 34 37 37 37 42 42 35 27 28 26 21 18 18 16 15 15 15 15 15 16 17 20 22 23 22 22 22 22 22 21 20
17 16 15 17 24 33 37 37 34 31 27 25 28 29 29 32 38 43 42 33 28 33 31 26 22 19 18 16 15 15 16 16 17 16 16 16 17 18 20 20 21 22 23 23
19 20 20 20 20 27 29 34 36 35 32 30 30 32 34 45 45 40 50 46 38 33 31 26 24 21 18 16 15 15 15 14 14 14 16 17 18 17 16 16 16 16 17 18
14 21 26 24 26 26 30 34 37 38 40 38 35 32 42 42 38 50 46 42 38 34 31 35 31 28 26 23 22 19 17 16 15 14 14 15 14 15 16 16 16 16 16 17
10 17 25 25 30 33 36 44 35 36 42 43 44 45 51 46 47 47 48 44 44 43 41 37 33 31 34 31 30 29 26 25 23 20 18 15 14 14 14 14 15 15 15 15
12 12 19 26 28 30 37 40 41 49 50 54 56 57 58 56 65 68 65 62 54 51 49 48 43 44 45 42 42 42 42 38 33 28 24 22 19 19 18 18 18 18 17 17
11 11 12 17 26 32 33 39 40 44 46 46 48 52 54 53 47 46 48 53 54 53 52 51 54 55 56 52 54 55 52 50 42 36 35 32 28 26 24 21 19 20 24 26
7 11 11 14 20 27 34 34 33 30 34 41 46 43 48 58 60 58 64 64 64 67 73 74 70 64 58 53 56 52 50 44 42 40 36 29 26 25 21 20 20 19 20 21
12 8 10 12 16 21 32 40 40 33 30 30 34 36 42 50 50 53 54 52 56 57 52 50 52 50 53 51 50 50 49 45 42 39 37 36 36 32 30 32 30 29 28 25
11 7 8 10 12 16 25 34 45 48 45 38 38 38 38 37 38 43 48 51 54 56 60 55 52 47 48 49 46 43 42 39 38 40 44 45 52 50 50 50 50 42 39 40
12 7 7 8 10 12 17 23 34 46 57 58 51 46 48 48 49 50 54 58 62 63 61 58 55 54 52 47 43 43 45 47 46 44 51 54 57 62 68 67 61 58 54 54
12 8 6 6 8 10 12 17 21 26 36 45 53 57 53 48 46 50 53 55 55 52 53 49 48 47 45 43 42 42 44 44 48 56 62 65 66 64 72 79 79 80 75 73
20 13 7 6 7 8 11 14 20 22 25 28 37 47 56 63 62 56 51 51 52 53 57 64 63 62 63 62 61 53 47 47 46 47 55 65 70 73 75 79 86 88 86 80
46 15 11 6 7 7 8 12 17 22 25 30 34 40 53 57 68 73 71 72 78 82 87 92 92 87 84 82 84 82 74 58 56 58 58 55 61 72 83 83 80 81 83 89
62 20 10 8 6 7 7 9 14 18 22 24 30 36 42 51 56 63 75 76 78 85 90 88 85 81 75 68 70 77 84 88 84 82 76 73 78 81 75 66 66 77 86 84
79 38 14 9 7 7 7 7 10 15 20 23 24 27 30 35 44 52 58 65 72 78 85 86 85 85 84 82 83 84 83 86 91 93 88 86 86 88 89 89 82 69 65 70
81 55 21 9 8 7 7 7 8 10 16 20 24 24 26 32 36 40 46 51 58 60 63 67 73 80 89 92 91 92 93 90 85 83 82 80 86 86 85 88 90 86 82 79
91 56 26 11 8 7 7 7 7 8 12 16 21 23 26 27 29 32 32 31 35 40 45 46 49 59 74 81 80 79 78 80 82 84 87 86 80 76 78 80 83 87 91 91
77 76 27 12 8 7 7 6 6 7 8 12 16 21 22 25 27 29 31 31 30 30 32 34 34 36 40 47 57 63 61 57 57 62 66 74 84 88 89 87 87 88 84 82
82 86 28 12 8 7 7 6 6 6 7 8 11 14 18 21 25 29 32 34 34 33 33 32 31 31 30 31 31 32 34 36 34 32 32 33 39 55 73 81 88 92 95 98
71 89 39 13 8 7 7 6 6 6 6 7 8 11 17 26 30 30 29 30 30 30 30 30 29 28 28 27 27 26 25 25 24 24 25 26 27 30 32 35 42 54 72 86
66 75 54 14 9 7 7 7 6 6 6 7 8 9 11 18 25 27 28 29 30 30 30 30 30 29 27 25 24 23 23 23 23 23 23 23 23 24 25 26 27 28 28 28
70 80 53 14 9 7 6 7 6 6 5 6 7 8 10 13 18 24 28 28 28 28 29 31 30 29 28 27 25 23 22 21 21 21 21 21 22 22 22 22 23 24 24 25
75 80 41 14 8 7 6 7 7 6 6 6 7 8 9 10 12 18 24 26 26 26 27 27 26 25 24 24 23 23 23 22 23 23 24 23 23 22 22 22 22 21 21 20
78 67 25 12 8 7 6 6 6 6 6 6 7 9 9 9 11 15 21 25 26 26 25 24 24 24 24 23 23 23 23 23 23 23 23 23 22 20 20 22 24 24 25 27
Wind_Speed
14 20 25 34 39 45 49 52 54 58 59 61 62 63 64 65 66 70 72 74 74 73 75 76 76 78 80 83 85 87 88 89 90 92 94 96 97 97 98 101 102 102 102 103
11 17 23 30 37 42 46 49 55 59 59 60 62 64 64 65 67 69 71 72 71 69 71 73 74 74 74 75 77 80 84 90 93 93 94 95 96 96 96 96 98 100 101 101
10 15 24 29 34 40 45 48 52 56 56 57 62 64 66 67 69 70 71 70 68 67 71 73 72 72 73 73 72 73 75 77 81 85 90 95 97 98 98 98 99 100 100 99
12 13 21 25 32 39 43 47 50 53 55 58 62 64 66 65 66 66 68 69 67 68 69 71 71 71 72 72 72 72 72 72 73 75 78 81 85 90 95 97 99 101 102 102
14 15 18 27 28 36 43 46 48 51 53 57 61 64 62 64 66 66 67 67 67 68 69 69 70 71 72 73 72 71 71 72 71 71 72 73 76 78 80 83 86 90 92 94
17 16 20 24 29 32 37 42 44 48 51 54 56 58 62 66 67 66 68 69 69 69 68 69 69 70 70 70 68 69 69 69 69 68 69 69 71 72 74 77 78 80 82 83
16 18 23 25 29 31 34 41 40 42 45 48 51 53 59 61 63 63 66 67 67 67 68 69 70 68 68 68 67 68 68 69 68 68 68 68 68 68 69 71 73 75 76 77
21 17 24 27 29 32 35 38 39 41 44 46 48 50 53 55 57 59 62 63 63 65 66 67 67 65 65 64 63 61 63 65 66 68 69 69 67 67 66 66 66 67 70 72
24 21 23 25 27 30 34 39 41 43 44 45 47 49 51 54 56 57 58 57 58 59 61 61 60 59 58 55 53 55 58 60 61 63 64 64 63 63 63 62 62 63 65 65
33 23 24 25 28 30 32 35 37 40 44 46 46 45 46 50 52 50 49 49 49 48 49 50 51 52 52 51 52 53 55 55 54 54 57 57 55 55 56 55 54 53 54 57
40 28 24 27 28 32 33 35 35 37 38 40 43 45 46 47 49 49 49 48 47 47 47 46 47 47 48 49 50 51 51 51 50 51 51 49 49 48 47 47 47 47 47 49
41 31 24 26 29 33 37 37 38 38 38 39 39 40 41 43 43 44 44 44 43 43 44 45 46 47 47 48 49 50 50 50 50 48 48 47 46 45 44 43 43 43 44 45
48 32 27 25 28 31 36 39 40 40 39 40 41 40 40 41 42 43 42 42 42 43 45 45 45 45 47 48 49 48 46 46 46 46 47 46 46 45 45 43 43 43 42 42
55 42 31 24 25 30 32 37 39 42 42 41 41 41 42 44 45 45 45 45 46 46 46 46 46 46 46 47 47 47 47 48 48 48 47 47 46 46 45 45 45 44 43 41
74 49 39 29 26 25 31 34 37 40 41 43 42 41 41 42 43 46 47 46 46 45 45 44 44 45 45 46 46 47 47 47 47 47 48 49 49 48 48 47 47 47 45 43
90 65 45 36 28 28 29 32 36 39 40 41 42 43 42 42 42 43 43 43 43 44 43 43 45 46 46 46 46 46 45 45 46 46 46 47 49 51 54 54 53 51 50 47
112 74 55 42 34 28 28 31 34 37 41 42 43 44 45 45 44 43 44 43 42 41 42 43 43 42 43 42 42 43 45 45 45 45 46 46 47 48 50 51 52 55 55 53
117 86 64 49 39 33 29 30 32 36 39 42 44 45 47 47 47 46 46 45 44 44 43 43 43 42 41 41 41 41 42 44 45 47 47 46 47 47 46 47 48 51 52 54
117 99 73 54 44 36 32 31 32 34 38 41 43 47 47 48 49 49 50 50 49 48 47 45 44 44 43 43 44 44 44 43 42 43 45 46 48 49 48 47 47 48 50 51
120 104 81 61 48 40 35 32 32 34 36 41 43 44 46 48 49 50 50 51 51 51 50 50 49 48 47 47 48 49 48 48 48 47 46 46 44 44 45 46 48 49 49 50
121 116 88 67 53 44 38 34 33 34 37 40 43 45 46 47 48 49 49 50 51 52 52 52 52 51 51 52 53 53 53 52 51 50 50 50 50 49 48 47 46 46 46 48
120 127 94 73 59 48 41 36 34 35 36 39 41 43 44 44 45 46 47 49 50 50 51 52 53 53 53 53 54 54 54 53 53 53 53 52 51 52 53 53 53 52 51 50
126 124 101 80 62 53 46 40 35 35 37 38 39 40 41 44 46 48 49 50 51 51 51 52 52 53 52 53 54 54 53 53 53 53 53 53 53 54 54 55 56 56 57 57
129 125 107 83 68 56 48 43 39 35 35 37 38 39 40 43 46 48 49 49 50 51 51 51 51 52 53 53 54 54 53 53 54 54 54 54 53 54 54 56 57 57 57 58
129 124 105 84 70 61 50 44 42 37 35 35 37 39 41 43 45 47 48 49 50 50 50 51 52 51 51 51 52 52 52 53 53 53 53 53 53 53 54 55 56 56 58 58
132 121 100 83 70 62 53 44 40 39 36 35 37 39 41 43 44 45 47 48 48 47 48 48 48 49 49 50 51 51 52 52 52 52 52 52 53 53 53 54 55 56 57 58
123 113 92 81 71 61 53 46 41 38 37 36 36 38 41 43 44 45 45 46 47 47 47 46 46 46 46 47 48 49 50 50 51 51 51 52 52 52 52 52 52 52 51 53
Wind_Direction
215 208 208 212 214 214 214 214 215 218 217 220 223 226 227 229 232 235 238 241 243 245 246 247 248 248 248 247 246 247 248 249 249 250 251 252 254 255 255 255 257 258 258 259
259 222 208 211 215 215 216 217 217 218 215 219 222 224 226 228 232 236 239 241 244 246 249 250 250 250 250 250 249 249 249 249 250 251 251 253 254 255 256 257 257 259 259 260
279 263 228 218 215 217 219 220 219 221 221 221 224 225 228 229 232 236 240 243 245 247 249 251 252 253 253 253 253 254 254 252 252 252 253 254 255 256 257 257 258 260 261 262
299 267 252 241 227 223 223 224 225 225 224 225 226 228 231 233 238 240 243 246 247 249 251 253 254 255 256 256 255 255 256 256 256 255 254 255 256 257 258 259 260 260 261 262
291 271 256 250 244 236 231 229 229 229 229 227 228 232 234 235 237 238 241 245 247 248 251 253 255 256 257 258 260 260 260 259 258 258 258 257 257 258 258 258 259 260 260 261
290 264 254 248 240 240 239 236 236 235 234 234 233 234 235 237 238 240 243 245 248 251 254 254 255 256 258 260 262 264 264 264 264 264 262 261 260 260 259 259 259 260 260 261
293 267 253 250 246 242 242 240 240 240 239 238 239 236 237 240 243 244 246 247 249 251 253 255 257 258 260 261 261 263 264 265 266 266 266 264 263 263 262 261 261 260 261 261
315 275 255 246 244 242 242 245 245 243 243 242 243 243 243 243 242 244 247 248 249 251 254 256 259 260 262 264 263 264 263 262 262 263 264 265 264 264 263 262 262 261 260 260
331 289 269 257 249 245 241 239 244 246 245 245 244 245 245 246 246 246 249 250 251 253 255 259 260 261 261 260 261 260 260 260 261 262 263 264 265 264 264 264 263 262 260 260
342 312 281 265 255 249 247 246 241 241 243 245 246 248 249 250 252 254 255 255 256 257 258 257 257 258 259 259 258 258 258 259 260 260 262 264 264 265 265 265 265 264 263 263
349 327 298 273 257 250 247 250 250 246 242 241 242 245 245 248 249 251 253 253 254 255 255 256 257 257 258 258 257 257 258 259 259 260 261 262 264 265 263 262 263 262 263 263
348 334 307 281 266 253 248 246 247 247 248 246 246 246 247 247 247 249 250 249 250 251 252 253 254 255 255 255 256 256 259 260 260 261 261 260 263 264 265 264 262 263 262 260
348 340 320 294 273 263 252 247 243 244 245 245 246 246 246 247 246 246 245 246 247 248 250 252 254 255 255 256 257 257 258 260 262 263 261 261 261 261 262 265 264 264 264 263
356 345 329 306 282 271 268 257 251 246 245 244 245 244 245 245 245 245 245 246 248 250 252 253 254 255 256 257 257 258 258 259 259 259 260 260 260 262 262 262 263 263 266 264
1 354 339 322 291 271 265 265 258 256 253 250 248 249 248 248 247 248 249 250 251 252 253 255 257 258 259 260 260 259 258 258 259 259 258 260 261 262 261 261 260 260 262 262
3 358 350 332 309 283 267 261 261 255 255 254 254 253 252 252 252 252 253 253 252 253 254 255 258 260 261 261 261 261 262 261 260 260 260 260 259 260 260 261 262 261 261 261
358 356 352 344 323 298 277 265 261 260 256 252 250 250 252 252 253 254 254 254 255 256 258 258 259 261 263 264 264 264 263 263 263 264 263 262 263 263 261 262 261 260 261 260
358 357 352 347 334 312 287 270 261 258 259 256 254 252 251 251 252 253 255 256 257 257 258 258 259 261 262 264 266 266 266 266 265 266 265 265 265 266 265 264 262 261 261 260
355 355 353 344 336 320 301 279 265 259 258 258 256 254 253 252 252 253 253 254 255 257 259 259 260 261 261 263 265 266 266 266 267 268 268 268 267 268 267 265 264 264 263 263
355 353 352 345 335 323 309 291 275 262 258 257 256 256 254 253 254 253 254 255 256 257 258 260 261 262 262 262 263 264 265 266 267 267 268 269 270 269 270 270 269 267 266 265
354 354 350 344 336 325 313 300 283 270 260 256 256 256 254 254 254 255 257 258 258 259 260 261 262 263 263 263 263 265 266 268 270 270 269 268 269 269 269 268 268 269 269 268
351 353 348 344 337 327 317 306 292 278 267 260 256 257 258 258 257 257 257 258 258 258 259 260 262 263 264 265 266 266 267 268 269 269 269 269 269 268 268 268 268 267 266 267
347 349 347 341 336 328 320 309 297 283 273 265 260 255 254 253 254 254 255 256 257 259 260 260 261 262 263 263 264 265 267 268 269 269 270 270 269 269 268 267 266 265 264 264
343 346 345 340 334 328 319 310 300 287 276 270 265 261 256 254 253 255 257 259 259 260 261 262 262 263 263 264 265 266 268 269 270 270 270 270 270 269 268 268 267 267 266 265
341 342 343 338 333 326 318 311 301 292 280 272 266 261 256 254 253 254 255 257 259 259 259 260 261 263 264 266 267 267 268 269 270 271 272 271 271 269 269 268 268 268 267 267
339 339 339 336 331 324 317 310 302 293 285 276 270 265 260 258 256 256 257 258 259 260 259 260 261 263 264 265 266 267 268 270 270 271 271 271 271 272 271 271 270 269 269 269
336 335 336 333 329 323 316 310 304 295 287 279 274 269 264 260 257 257 258 259 261 261 261 261 261 263 265 266 267 268 269 270 270 270 270 270 270 270 271 272 273 273 271 270